SCP
0 0 -0 -0 -0 -0 -0 -0 -0 0 0 0 -0 -0 0 0 0 0 0 0 0 -0 0 0 0 0 0 0 -0 -0 -0 -0 -0 0 0 0 0 0 -0 -0 0 0 0
0 0 -0 -0 -0 0 -0 0 -0 -0 0 0 -0 -0 -0 -0 -0 -0 0 0 0 0 0 0 0 0 0 0 -0 -0 0 0 0 0 -0 -0 -0 0 0 -0 -0 0 0
-0 0 0 -0 0 0 -0 -0 0 -0 -0 -0 -0 -0 -0 -0 0 0 0 0 0 0 0 0 0 0 0 0 0 0 -0 0 0 -0 -0 0 -0 0 0 0 0 -0 0
-0 0 0 0 0 0 -0 -0 0 -0 -0 -0 -0 0 -0 0 0 0 0 0 0 0 0 0 0 0 0 0 0 0 0 -0 0 0 -0 -0 -0 0 0 0 0 0 0
0 0 0 0 0 -0 -0 -0 -0 -0 -0 -0 -0 -0 0 0 0 0 0 -0 -0 0 0 0 0 0 0 0 0 0 0 0 0 0 0 -0 -0 0 0 0 0 0 0
0 0 0 0 0 0 -0 -0 -0 -0 -0 -0 -0 -0 -0 0 0 -0 -0 -0 -0 -0 0 0 0 0 0 0 0 0 0 0 0 0 0 -0 -0 -0 0 0 0 0 0
0 0 0 0 0 0 0 -0 -0 -0 -0 -0 -0 -0 -0 -0 -0 -0 -0 -0 -0 -0 0 0 0 0 0 0 0 0 0 0 0 0 0 0 0 -0 0 0 0 0 0
0 0 0 0 0 0 0 -0 0 -0 -0 -0 -0 0 -0 -0 -0 -0 -0 -0 -0 -0 0 0 0 0 0 0 0 0 -0 -0 0 0 0 0 -0 -0 0 0 0 0 0
0 0 0 0 0 0 0 0 0 0 0 0 0 0 -0 -0 -0 -0 0 0 0 0 0 0 0 0 0 0 0 0 -0 -0 -0 0 0 0 0 -0 0 0 0 0 0
0 0 0 0 0 0 0 0 0 0 0 0 0 0 0 0 0 0 0 0 0 0 0 0 0 -0 0 0 0 -0 -0 -0 0 0 0 0 0 0 0 0 0 0 0
0 0 0 0 0 0 0 0 0 0 0 0 0 0 0 0 0 0 0 0 0 0 0 0 0 0 0 -0 -0 -0 -0 0 0 0 0 0 0 0 0 0 0 0 0
0 0 0 0 0 0 0 0 0 0 0 0 0 0 0 0 0 0 0 0 0 0 0 0 0 0 0 0 0 0 0 0 0 0 0 0 0 0 0 0 0 0 0
0 0 0 0 0 0 0 0 0 0 0 0 0 0 0 0 0 0 0 0 0 0 0 0 0 0 0 0 0 0 0 0 0 0 0 0 0 0 0 0 0 0 0
0 0 0 0 0 0 0 0 0 0 0 0 0 0 0 0 0 0 0 0 0 0 0 0 0 0 0 0 0 0 0 0 0 0 0 0 0 0 0 0 0 0 0
0 0 0 0 0 0 0 0 0 0 0 0 0 0 0 0 0 0 0 0 0 0 0 0 0 0 0 0 0 0 0 0 0 0 0 0 0 0 0 0 0 0 0
0 0 0 0 0 0 0 0 0 0 0 0 0 0 0 0 0 0 0 0 0 0 0 0 0 0 0 0 0 0 0 0 0 0 0 0 0 0 0 0 0 0 0
0 0 0 0 0 0 0 0 0 0 0 0 0 0 0 0 0 0 0 0 0 0 0 0 0 0 0 0 0 0 0 0 0 0 0 0 0 0 0 0 0 0 0
0 0 0 0 0 0 0 0 0 0 0 0 0 0 0 0 0 0 0 0 0 0 0 0 0 0 0 0 0 0 0 0 0 0 0 0 0 0 0 0 0 0 0
0 0 0 0 0 0 0 0 0 0 0 0 0 0 0 0 0 0 0 0 0 0 0 0 0 0 0 0 0 0 0 0 0 0 0 0 0 0 0 0 0 0 0
0 0 0 0 0 0 0 0 0 0 0 0 0 0 0 0 0 0 0 0 0 0 0 0 0 0 0 0 0 0 0 0 0 0 0 0 0 0 0 0 0 0 0
0 0 0 0 0 0 0 0 0 0 0 0 0 0 0 0 0 0 0 0 0 0 0 0 0 0 0 0 0 0 0 0 0 0 0 0 0 0 0 0 0 0 0
0 0 0 0 0 0 0 0 0 0 0 0 0 0 0 0 0 0 0 0 0 0 0 0 0 0 0 0 0 0 0 0 0 0 0 0 0 0 0 0 0 0 0
0 0 0 0 0 0 0 0 0 0 0 0 0 0 0 0 0 0 0 0 0 0 0 0 0 0 0 0 0 0 0 0 0 0 0 0 0 0 0 0 0 0 0
0 0 0 0 0 0 0 0 0 0 0 0 0 0 0 0 0 0 0 0 0 0 0 0 0 0 0 0 0 0 0 0 0 0 0 0 0 0 0 0 0 0 0
0 0 0 0 0 0 0 0 0 0 0 0 0 0 0 0 0 0 0 0 0 0 0 0 0 0 0 0 0 0 0 0 0 0 0 0 0 0 0 0 0 0 0
0 0 0 0 0 0 0 0 0 0 0 0 0 0 0 0 0 0 0 0 0 0 0 0 0 0 0 0 0 0 0 0 0 0 0 0 0 0 0 0 0 0 0
Wind_Speed_500mb
44 38 36 34 31 26 25 28 23 25 28 31 25 22 21 19 14 10 8 12 17 20 21 21 19 18 20 20 16 17 18 19 18 20 22 25 23 23 24 26 29 28 24
47 42 37 36 31 28 25 30 22 22 23 23 22 18 17 15 12 11 12 13 17 19 20 19 18 16 18 19 18 18 20 22 21 18 16 22 22 17 19 21 20 22 19
45 45 39 38 36 29 26 27 25 18 21 19 17 13 12 13 12 10 11 12 16 17 17 16 14 13 16 17 17 20 23 22 22 23 21 20 21 19 17 15 15 15 15
45 44 40 39 39 32 27 27 29 26 17 16 13 12 11 10 9 8 8 10 11 13 12 12 11 12 11 12 16 17 19 19 20 22 23 21 22 23 21 18 15 12 10
45 42 38 37 36 33 28 26 25 24 19 14 13 11 9 8 7 7 7 6 7 7 7 7 8 9 8 8 10 12 14 16 16 18 19 21 21 21 21 19 17 14 11
45 42 37 35 34 32 29 27 26 23 20 16 12 10 9 9 8 6 5 5 4 4 3 2 2 3 4 5 7 9 11 12 13 13 13 14 16 17 18 18 17 16 14
46 41 37 33 31 31 31 28 26 25 21 17 14 11 11 10 11 9 6 5 5 4 3 3 2 3 3 4 5 7 9 9 10 10 10 11 12 12 13 15 15 15 14
43 41 37 32 30 29 29 29 26 24 23 21 18 17 16 14 13 11 10 9 8 7 8 8 8 8 7 8 10 11 11 12 12 11 10 10 11 11 11 12 13 13 13
41 39 37 35 33 31 29 30 30 27 23 22 22 21 18 18 16 15 15 14 13 13 12 12 12 12 12 12 13 15 17 17 17 17 15 14 13 14 15 14 15 17 18
40 41 38 36 34 33 32 31 30 29 28 27 26 26 24 21 20 21 19 18 17 16 16 15 16 16 16 17 18 19 20 20 22 21 20 18 18 19 19 20 20 21 21
42 45 42 41 38 34 33 34 34 33 32 31 30 29 27 24 22 21 19 19 19 18 17 17 17 18 19 19 20 22 22 22 22 21 20 20 21 23 24 24 25 25 26
47 48 48 46 42 39 38 37 37 37 37 36 34 31 28 25 24 23 22 22 21 20 20 19 19 20 21 22 23 25 24 24 22 21 22 23 25 26 28 27 28 29 30
47 46 47 49 46 44 42 40 40 39 39 39 38 36 34 31 30 31 30 27 25 24 24 24 24 25 26 26 26 26 26 26 26 26 25 26 27 29 30 30 31 31 33
48 44 43 44 45 44 44 43 43 44 44 43 42 40 39 37 36 36 35 33 33 30 30 30 30 30 30 30 31 31 31 31 30 30 28 27 28 30 29 30 30 31 34
45 44 46 45 44 43 46 46 45 46 45 43 44 45 45 43 43 41 41 40 39 38 37 36 36 35 36 35 35 37 34 33 33 33 32 30 30 31 32 33 34 36 38
39 45 45 47 46 47 48 47 48 48 47 47 47 47 48 47 46 46 46 46 45 43 41 42 41 41 41 41 41 39 38 37 36 36 35 33 32 34 37 39 40 41 42
39 41 46 48 49 50 51 51 51 51 51 51 49 47 48 50 50 49 51 51 49 46 46 48 47 47 47 44 46 41 41 39 40 40 38 38 38 39 40 42 44 47 46
49 49 48 50 55 56 55 54 53 53 53 54 52 50 50 51 50 51 54 53 49 49 50 51 51 52 52 49 48 45 44 44 45 44 44 42 42 43 44 45 45 43 36
56 55 54 55 58 57 60 61 60 58 58 60 59 59 57 56 56 56 56 54 51 52 53 54 55 55 54 53 53 51 49 52 51 50 49 44 44 45 47 44 39 34 33
56 58 58 58 58 60 61 64 68 68 67 66 67 66 64 63 62 62 63 61 59 59 59 60 61 60 61 59 58 61 58 57 58 57 54 46 44 43 42 37 32 32 35
52 54 54 57 58 58 63 68 71 75 73 72 70 68 68 67 65 66 68 69 68 67 66 65 64 64 67 65 62 69 69 66 65 61 49 46 39 33 31 29 31 33 37
49 49 50 52 61 61 63 65 68 71 72 72 72 71 67 64 63 65 68 70 71 72 74 74 72 71 71 70 66 64 58 58 60 50 42 37 30 31 34 36 37 40 43
48 47 48 45 44 49 59 66 69 72 74 73 72 70 65 61 59 59 60 62 67 70 72 72 74 74 75 73 71 57 24 26 36 36 31 31 33 38 38 40 41 45 43
23 38 43 39 42 41 43 52 62 71 75 72 73 71 68 66 63 61 59 59 62 68 72 71 72 76 76 75 75 75 72 70 39 33 39 37 37 44 46 44 45 41 42
21 18 21 31 38 38 42 44 48 56 63 66 74 77 77 77 76 76 72 68 67 65 66 67 70 73 78 79 79 78 79 75 76 80 57 63 70 65 53 46 51 50 41
24 21 19 17 19 26 33 38 45 52 54 60 64 70 72 75 76 76 75 75 74 72 71 69 68 70 72 78 79 79 81 68 70 78 79 75 82 76 64 62 50 42 41
Wind_Direction_500mb
171 173 166 167 156 157 145 145 147 148 146 138 141 145 150 157 157 140 115 98 95 93 89 87 86 82 90 108 111 99 99 97 102 94 92 85 70 69 78 80 76 67 71
163 170 167 164 154 166 152 149 154 156 152 153 151 134 136 138 131 124 112 106 97 92 88 86 82 83 84 85 89 90 87 82 82 86 75 79 67 61 73 74 72 68 68
167 167 166 165 161 170 162 160 154 160 159 152 147 143 143 124 125 118 117 110 97 93 90 86 83 83 81 74 74 75 73 74 75 73 68 57 61 63 68 64 62 61 65
171 168 167 170 168 174 168 166 171 167 167 161 160 153 146 137 130 129 125 109 105 99 97 91 83 73 75 66 62 51 57 65 67 64 61 59 49 50 52 50 49 48 52
174 172 170 174 178 177 175 174 175 179 190 187 184 179 172 163 153 146 140 128 123 118 114 103 86 78 70 58 51 47 44 49 51 50 51 52 50 47 43 43 41 38 38
176 177 177 177 181 184 186 181 182 183 182 181 180 182 192 196 193 179 155 155 166 174 165 124 90 72 55 37 16 9 16 26 31 32 34 36 41 43 36 34 32 30 27
178 182 183 183 186 191 194 195 191 189 194 200 205 208 217 218 219 214 210 205 213 224 243 247 265 290 316 325 324 331 338 344 350 358 7 12 13 17 25 20 16 15 12
184 186 189 190 193 197 202 206 211 213 214 217 222 223 228 234 230 230 237 245 248 255 260 264 267 276 284 289 296 301 303 308 314 321 330 338 340 340 343 349 349 350 348
191 196 197 198 198 203 208 212 217 225 229 228 232 233 233 233 237 241 245 250 255 258 261 269 276 281 281 280 283 287 292 297 301 304 307 307 311 315 314 315 317 323 325
201 204 208 207 208 210 212 216 222 225 229 232 236 239 239 237 239 244 248 254 260 264 266 270 276 279 282 283 281 282 285 290 292 294 297 299 301 307 308 306 307 307 310
206 210 214 215 216 219 221 222 225 227 229 234 241 241 241 243 244 245 244 246 250 256 262 267 272 277 279 281 284 284 285 285 286 291 299 295 297 303 305 302 302 303 306
206 210 217 222 224 227 227 230 233 233 234 237 240 244 244 244 245 243 245 249 252 259 262 269 276 281 285 288 290 289 288 282 283 286 291 293 294 297 298 298 298 300 301
214 214 218 221 228 234 237 237 237 240 242 243 245 246 250 251 251 252 255 262 264 266 267 269 276 282 282 284 284 285 287 287 287 289 289 288 290 291 292 295 295 296 295
225 227 226 227 231 234 238 241 246 245 245 246 248 250 253 256 258 259 262 264 267 270 269 271 276 279 281 281 285 285 287 288 288 287 288 287 287 287 289 291 292 293 294
233 233 233 233 237 241 242 244 245 249 252 253 253 254 255 258 260 263 264 264 266 268 270 271 276 278 278 280 282 285 287 286 284 284 285 286 285 286 287 287 288 290 291
240 239 238 240 242 243 247 249 251 253 256 255 254 255 256 260 263 265 266 267 268 269 271 272 273 274 275 277 280 282 284 281 280 282 283 282 281 282 283 284 285 286 286
257 252 246 246 246 248 250 252 254 255 257 256 256 255 256 259 261 263 264 265 267 269 270 269 271 274 275 276 277 277 278 280 280 280 280 281 281 279 279 280 283 285 285
260 258 258 254 251 252 252 255 258 258 257 257 257 256 256 257 260 262 263 266 270 269 270 271 273 274 275 277 279 279 280 278 278 280 280 282 282 280 281 282 283 284 280
264 264 264 260 260 260 259 259 260 261 259 260 260 258 257 259 261 264 266 268 270 269 269 270 272 273 276 277 280 280 277 276 278 280 282 282 276 278 283 283 278 272 271
268 267 267 266 263 262 263 261 261 262 261 260 260 261 262 262 263 266 269 269 269 270 270 270 272 275 278 279 278 278 276 276 278 279 282 276 270 275 280 279 272 269 274
268 266 269 269 266 262 260 260 259 260 262 264 266 268 269 267 267 268 270 273 273 273 274 273 273 274 275 276 280 279 280 279 277 278 276 266 266 274 275 272 273 274 278
272 268 268 269 264 264 264 266 266 269 271 271 273 274 274 275 275 275 276 278 280 279 277 275 272 273 274 273 270 276 289 285 280 280 269 259 254 276 275 274 275 281 284
261 267 272 276 276 273 269 267 267 267 270 272 275 277 283 284 284 282 281 281 281 280 278 275 273 271 272 274 270 255 251 253 278 281 262 253 261 280 277 273 277 284 282
286 258 262 268 275 279 276 271 269 271 272 277 280 281 282 283 283 284 284 283 283 281 280 278 276 274 272 268 269 266 258 253 264 280 275 267 263 275 284 274 278 283 279
348 328 293 271 265 270 271 273 273 272 273 276 276 278 278 279 279 280 280 281 280 280 280 279 277 275 272 270 267 267 267 261 257 252 263 268 272 276 282 280 278 281 267
358 348 342 327 298 284 280 279 277 277 277 278 280 282 283 283 281 280 280 280 281 280 280 281 280 277 274 270 268 265 261 257 249 247 251 252 266 275 277 284 280 269 264
Wind_Speed_850mb
44 38 36 34 31 26 25 28 23 25 28 31 25 22 21 19 14 10 8 12 17 20 21 21 19 18 20 20 16 17 18 19 18 20 22 25 23 23 24 26 29 28 24
47 42 37 36 31 28 25 30 22 22 23 23 22 18 17 15 12 11 12 13 17 19 20 19 18 16 18 19 18 18 20 22 21 18 16 22 22 17 19 21 20 22 19
45 45 39 38 36 29 26 27 25 18 21 19 17 13 12 13 12 10 11 12 16 17 17 16 14 13 16 17 17 20 23 22 22 23 21 20 21 19 17 15 15 15 15
45 44 40 39 39 32 27 27 29 26 17 16 13 12 11 10 9 8 8 10 11 13 12 12 11 12 11 12 16 17 19 19 20 22 23 21 22 23 21 18 15 12 10
45 42 38 37 36 33 28 26 25 24 19 14 13 11 9 8 7 7 7 6 7 7 7 7 8 9 8 8 10 12 14 16 16 18 19 21 21 21 21 19 17 14 11
45 42 37 35 34 32 29 27 26 23 20 16 12 10 9 9 8 6 5 5 4 4 3 2 2 3 4 5 7 9 11 12 13 13 13 14 16 17 18 18 17 16 14
46 41 37 33 31 31 31 28 26 25 21 17 14 11 11 10 11 9 6 5 5 4 3 3 2 3 3 4 5 7 9 9 10 10 10 11 12 12 13 15 15 15 14
43 41 37 32 30 29 29 29 26 24 23 21 18 17 16 14 13 11 10 9 8 7 8 8 8 8 7 8 10 11 11 12 12 11 10 10 11 11 11 12 13 13 13
41 39 37 35 33 31 29 30 30 27 23 22 22 21 18 18 16 15 15 14 13 13 12 12 12 12 12 12 13 15 17 17 17 17 15 14 13 14 15 14 15 17 18
40 41 38 36 34 33 32 31 30 29 28 27 26 26 24 21 20 21 19 18 17 16 16 15 16 16 16 17 18 19 20 20 22 21 20 18 18 19 19 20 20 21 21
42 45 42 41 38 34 33 34 34 33 32 31 30 29 27 24 22 21 19 19 19 18 17 17 17 18 19 19 20 22 22 22 22 21 20 20 21 23 24 24 25 25 26
47 48 48 46 42 39 38 37 37 37 37 36 34 31 28 25 24 23 22 22 21 20 20 19 19 20 21 22 23 25 24 24 22 21 22 23 25 26 28 27 28 29 30
47 46 47 49 46 44 42 40 40 39 39 39 38 36 34 31 30 31 30 27 25 24 24 24 24 25 26 26 26 26 26 26 26 26 25 26 27 29 30 30 31 31 33
48 44 43 44 45 44 44 43 43 44 44 43 42 40 39 37 36 36 35 33 33 30 30 30 30 30 30 30 31 31 31 31 30 30 28 27 28 30 29 30 30 31 34
45 44 46 45 44 43 46 46 45 46 45 43 44 45 45 43 43 41 41 40 39 38 37 36 36 35 36 35 35 37 34 33 33 33 32 30 30 31 32 33 34 36 38
39 45 45 47 46 47 48 47 48 48 47 47 47 47 48 47 46 46 46 46 45 43 41 42 41 41 41 41 41 39 38 37 36 36 35 33 32 34 37 39 40 41 42
39 41 46 48 49 50 51 51 51 51 51 51 49 47 48 50 50 49 51 51 49 46 46 48 47 47 47 44 46 41 41 39 40 40 38 38 38 39 40 42 44 47 46
49 49 48 50 55 56 55 54 53 53 53 54 52 50 50 51 50 51 54 53 49 49 50 51 51 52 52 49 48 45 44 44 45 44 44 42 42 43 44 45 45 43 36
56 55 54 55 58 57 60 61 60 58 58 60 59 59 57 56 56 56 56 54 51 52 53 54 55 55 54 53 53 51 49 52 51 50 49 44 44 45 47 44 39 34 33
56 58 58 58 58 60 61 64 68 68 67 66 67 66 64 63 62 62 63 61 59 59 59 60 61 60 61 59 58 61 58 57 58 57 54 46 44 43 42 37 32 32 35
52 54 54 57 58 58 63 68 71 75 73 72 70 68 68 67 65 66 68 69 68 67 66 65 64 64 67 65 62 69 69 66 65 61 49 46 39 33 31 29 31 33 37
49 49 50 52 61 61 63 65 68 71 72 72 72 71 67 64 63 65 68 70 71 72 74 74 72 71 71 70 66 64 58 58 60 50 42 37 30 31 34 36 37 40 43
48 47 48 45 44 49 59 66 69 72 74 73 72 70 65 61 59 59 60 62 67 70 72 72 74 74 75 73 71 57 24 26 36 36 31 31 33 38 38 40 41 45 43
23 38 43 39 42 41 43 52 62 71 75 72 73 71 68 66 63 61 59 59 62 68 72 71 72 76 76 75 75 75 72 70 39 33 39 37 37 44 46 44 45 41 42
21 18 21 31 38 38 42 44 48 56 63 66 74 77 77 77 76 76 72 68 67 65 66 67 70 73 78 79 79 78 79 75 76 80 57 63 70 65 53 46 51 50 41
24 21 19 17 19 26 33 38 45 52 54 60 64 70 72 75 76 76 75 75 74 72 71 69 68 70 72 78 79 79 81 68 70 78 79 75 82 76 64 62 50 42 41
Wind_Direction_850mb
171 173 166 167 156 157 145 145 147 148 146 138 141 145 150 157 157 140 115 98 95 93 89 87 86 82 90 108 111 99 99 97 102 94 92 85 70 69 78 80 76 67 71
163 170 167 164 154 166 152 149 154 156 152 153 151 134 136 138 131 124 112 106 97 92 88 86 82 83 84 85 89 90 87 82 82 86 75 79 67 61 73 74 72 68 68
167 167 166 165 161 170 162 160 154 160 159 152 147 143 143 124 125 118 117 110 97 93 90 86 83 83 81 74 74 75 73 74 75 73 68 57 61 63 68 64 62 61 65
171 168 167 170 168 174 168 166 171 167 167 161 160 153 146 137 130 129 125 109 105 99 97 91 83 73 75 66 62 51 57 65 67 64 61 59 49 50 52 50 49 48 52
174 172 170 174 178 177 175 174 175 179 190 187 184 179 172 163 153 146 140 128 123 118 114 103 86 78 70 58 51 47 44 49 51 50 51 52 50 47 43 43 41 38 38
176 177 177 177 181 184 186 181 182 183 182 181 180 182 192 196 193 179 155 155 166 174 165 124 90 72 55 37 16 9 16 26 31 32 34 36 41 43 36 34 32 30 27
178 182 183 183 186 191 194 195 191 189 194 200 205 208 217 218 219 214 210 205 213 224 243 247 265 290 316 325 324 331 338 344 350 358 7 12 13 17 25 20 16 15 12
184 186 189 190 193 197 202 206 211 213 214 217 222 223 228 234 230 230 237 245 248 255 260 264 267 276 284 289 296 301 303 308 314 321 330 338 340 340 343 349 349 350 348
191 196 197 198 198 203 208 212 217 225 229 228 232 233 233 233 237 241 245 250 255 258 261 269 276 281 281 280 283 287 292 297 301 304 307 307 311 315 314 315 317 323 325
201 204 208 207 208 210 212 216 222 225 229 232 236 239 239 237 239 244 248 254 260 264 266 270 276 279 282 283 281 282 285 290 292 294 297 299 301 307 308 306 307 307 310
206 210 214 215 216 219 221 222 225 227 229 234 241 241 241 243 244 245 244 246 250 256 262 267 272 277 279 281 284 284 285 285 286 291 299 295 297 303 305 302 302 303 306
206 210 217 222 224 227 227 230 233 233 234 237 240 244 244 244 245 243 245 249 252 259 262 269 276 281 285 288 290 289 288 282 283 286 291 293 294 297 298 298 298 300 301
214 214 218 221 228 234 237 237 237 240 242 243 245 246 250 251 251 252 255 262 264 266 267 269 276 282 282 284 284 285 287 287 287 289 289 288 290 291 292 295 295 296 295
225 227 226 227 231 234 238 241 246 245 245 246 248 250 253 256 258 259 262 264 267 270 269 271 276 279 281 281 285 285 287 288 288 287 288 287 287 287 289 291 292 293 294
233 233 233 233 237 241 242 244 245 249 252 253 253 254 255 258 260 263 264 264 266 268 270 271 276 278 278 280 282 285 287 286 284 284 285 286 285 286 287 287 288 290 291
240 239 238 240 242 243 247 249 251 253 256 255 254 255 256 260 263 265 266 267 268 269 271 272 273 274 275 277 280 282 284 281 280 282 283 282 281 282 283 284 285 286 286
257 252 246 246 246 248 250 252 254 255 257 256 256 255 256 259 261 263 264 265 267 269 270 269 271 274 275 276 277 277 278 280 280 280 280 281 281 279 279 280 283 285 285
260 258 258 254 251 252 252 255 258 258 257 257 257 256 256 257 260 262 263 266 270 269 270 271 273 274 275 277 279 279 280 278 278 280 280 282 282 280 281 282 283 284 280
264 264 264 260 260 260 259 259 260 261 259 260 260 258 257 259 261 264 266 268 270 269 269 270 272 273 276 277 280 280 277 276 278 280 282 282 276 278 283 283 278 272 271
268 267 267 266 263 262 263 261 261 262 261 260 260 261 262 262 263 266 269 269 269 270 270 270 272 275 278 279 278 278 276 276 278 279 282 276 270 275 280 279 272 269 274
268 266 269 269 266 262 260 260 259 260 262 264 266 268 269 267 267 268 270 273 273 273 274 273 273 274 275 276 280 279 280 279 277 278 276 266 266 274 275 272 273 274 278
272 268 268 269 264 264 264 266 266 269 271 271 273 274 274 275 275 275 276 278 280 279 277 275 272 273 274 273 270 276 289 285 280 280 269 259 254 276 275 274 275 281 284
261 267 272 276 276 273 269 267 267 267 270 272 275 277 283 284 284 282 281 281 281 280 278 275 273 271 272 274 270 255 251 253 278 281 262 253 261 280 277 273 277 284 282
286 258 262 268 275 279 276 271 269 271 272 277 280 281 282 283 283 284 284 283 283 281 280 278 276 274 272 268 269 266 258 253 264 280 275 267 263 275 284 274 278 283 279
348 328 293 271 265 270 271 273 273 272 273 276 276 278 278 279 279 280 280 281 280 280 280 279 277 275 272 270 267 267 267 261 257 252 263 268 272 276 282 280 278 281 267
358 348 342 327 298 284 280 279 277 277 277 278 280 282 283 283 281 280 280 280 281 280 280 281 280 277 274 270 268 265 261 257 249 247 251 252 266 275 277 284 280 269 264